Defiance, OH

6:20 PM EST on December 14, 2017 (GMT -0500)
Defiance Memorial

Weather History for KDFI - November, 2013

Change the Weather History Date:

Thursday, November 7, 2013

  Actual Average Record
Temperature  
Mean Temperature 42 °F -  
Max Temperature 46 °F 49 °F 77 °F (1975)
Min Temperature 37 °F 31 °F 18 °F (1959)
Degree Days  
Heating Degree Days 24    
Moisture  
Dew Point 31 °F    
Average Humidity 65    
Maximum Humidity 82    
Minimum Humidity 41    
Precipitation  
Precipitation 0.01 in - - ()
Sea Level Pressure  
Sea Level Pressure 30.15 in    
Wind  
Wind Speed 6 mph (West)    
Max Wind Speed 13 mph    
Max Gust Speed 24 mph    
Visibility 10 miles    
Events      
Averages and records for this station are not official NWS values.
T = Trace of Precipitation, MM = Missing Value Source: NWS Daily Summary

Daily Weather History Graph

Daily Weather History Graph

Search for Another Location

Airport or City:

Trip Planner

Search our weather history database for the weather conditions in past years. The results will help you decide how hot, cold, wet, or windy it might be!

Date:

Astronomy

Nov. 07, 2013 Rise Set
Actual Time 7:16 AM EST 5:25 PM EST
Civil Twilight 6:47 AM EST 5:54 PM EST
Nautical Twilight 6:14 AM EST 6:27 PM EST
Astronomical Twilight 5:42 AM EST 7:00 PM EST
Moon 11:25 AM EST (11/7) 9:35 PM EST (11/7)
Length of Visible Light 11h 07m
Length of Day
10h 08m
Waxing Crescent, 22% of the Moon is Illuminated
Nov 7
Waxing Crescent
Nov 10
First Quarter
Nov 17
Full
Nov 25
Last Quarter
Dec 2
New

Hourly Weather History & Observations

Time (EST) Temp. Windchill Dew Point Humidity Pressure Visibility Wind Dir Wind Speed Gust Speed Precip Events Conditions
12:03 AM 44.6 °F 40.7 °F 37.4 °F 76% 30.04 in 10.0 mi Variable 6.9 mph - N/A   Mostly Cloudy
12:36 AM 44.6 °F 42.2 °F 39.2 °F 81% 30.05 in 10.0 mi Variable 4.6 mph - N/A   Overcast
12:53 AM 44.1 °F 41.5 °F 37.9 °F 79% 30.06 in 10.0 mi WNW 4.6 mph - N/A   Overcast
1:53 AM 43.0 °F 40.3 °F 37.9 °F 82% 30.08 in 10.0 mi Variable 4.6 mph - 0.00 in   Overcast
2:53 AM 41.0 °F 39.0 °F 36.0 °F 82% 30.09 in 10.0 mi Variable 3.5 mph - N/A   Mostly Cloudy
3:53 AM 42.1 °F - 37.0 °F 82% 30.09 in 10.0 mi Calm Calm - N/A   Overcast
4:49 AM 42.8 °F 40.1 °F 37.4 °F 81% 30.10 in 10.0 mi Variable 4.6 mph - 0.01 in   Overcast
4:53 AM 42.1 °F 38.4 °F 36.0 °F 79% 30.11 in 10.0 mi Variable 5.8 mph - 0.01 in   Overcast
5:05 AM 42.8 °F 40.1 °F 35.6 °F 76% 30.10 in 10.0 mi West 4.6 mph - N/A   Overcast
5:53 AM 39.9 °F 34.5 °F 30.9 °F 70% 30.13 in 10.0 mi WNW 8.1 mph - N/A   Mostly Cloudy
6:53 AM 37.9 °F 30.9 °F 26.1 °F 62% 30.17 in 10.0 mi NW 10.4 mph 17.3 mph N/A   Mostly Cloudy
7:53 AM 37.0 °F - 26.1 °F 65% 30.19 in 10.0 mi Calm Calm - N/A   Partly Cloudy
8:53 AM 39.9 °F 37.8 °F 28.9 °F 65% 30.21 in 10.0 mi Variable 3.5 mph - N/A   Scattered Clouds
9:53 AM 41.0 °F 37.1 °F 30.0 °F 65% 30.21 in 10.0 mi Variable 5.8 mph - N/A   Clear
10:53 AM 43.0 °F 38.2 °F 28.9 °F 58% 30.22 in 10.0 mi WNW 8.1 mph 18.4 mph N/A   Scattered Clouds
11:53 AM 44.1 °F 40.1 °F 28.9 °F 55% 30.21 in 10.0 mi Variable 6.9 mph 20.7 mph N/A   Mostly Cloudy
12:53 PM 46.0 °F 41.4 °F 28.9 °F 51% 30.18 in 10.0 mi NW 9.2 mph 17.3 mph N/A   Mostly Cloudy
1:53 PM 46.9 °F - 28.0 °F 48% 30.17 in 10.0 mi West 9.2 mph 18.4 mph N/A   Mostly Cloudy
2:53 PM 46.9 °F - 27.0 °F 46% 30.16 in 10.0 mi WSW 11.5 mph 20.7 mph N/A   Scattered Clouds
3:53 PM 46.9 °F - 24.1 °F 41% 30.15 in 10.0 mi WSW 12.7 mph 24.2 mph N/A   Mostly Cloudy
4:53 PM 45.0 °F 40.1 °F 23.0 °F 42% 30.15 in 10.0 mi WSW 9.2 mph 19.6 mph N/A   Mostly Cloudy
5:53 PM 43.0 °F 40.3 °F 26.1 °F 51% 30.17 in 10.0 mi WSW 4.6 mph - N/A   Mostly Cloudy
6:53 PM 44.1 °F 40.8 °F 27.0 °F 51% 30.17 in 10.0 mi Variable 5.8 mph - N/A   Overcast
7:53 PM 43.0 °F - 28.9 °F 58% 30.16 in 10.0 mi Calm Calm - N/A   Overcast
8:53 PM 42.1 °F 38.4 °F 30.0 °F 62% 30.16 in 10.0 mi Variable 5.8 mph - N/A   Overcast
9:53 PM 41.0 °F 38.0 °F 30.9 °F 67% 30.18 in 10.0 mi West 4.6 mph - N/A   Overcast
10:53 PM 39.9 °F 37.8 °F 30.9 °F 70% 30.18 in 10.0 mi Variable 3.5 mph - N/A   Partly Cloudy
11:53 PM 37.9 °F 34.4 °F 30.9 °F 76% 30.19 in 10.0 mi Variable 4.6 mph - N/A   Clear